Location: Domont
(49.0278°N, 2.3264°E)
Time: 11:29:36
(UTC+00:00)

NOAA 18 - Pass Details

Date: 28 June 2022
Orbit: 839 x 860 km, 98.9° (Epoch: 13 August)

Event Time Altitude Azimuth Distance (km) Brightness Sun altitude
Exits shadow 21:33:13 11° 173° (S) 2,377 7.0 -11.2°
Maximum altitude 21:38:27 69° 257° (WSW) 913 5.4 -11.7°
Drops below altitude 10° 21:44:00 10° 341° (NNW) 2,503 9.1 -12.1°
Sets 21:46:25 0° 344° (NNW) 3,446 10.1 -12.3°
